Location: Poughquag
(41.6090°N, 73.6820°W)
Time: 03:04:52
(UTC-04:00)

STRAND 1 - Pass Details

Date: 28 November 2023
Orbit: 765 x 776 km, 98.4° (Epoch: 12 October)

Event Time Altitude Azimuth Distance (km) Brightness Sun altitude
Exits shadow 17:09:49 10° 63° (ENE) 2,319 ? -8.2°
Reaches altitude 10° 17:09:54 10° 64° (ENE) 2,306 ? -8.2°
Maximum altitude 17:12:03 13° 89° (E) 2,125 ? -8.6°
Drops below altitude 10° 17:14:12 10° 115° (ESE) 2,300 ? -8.9°
Sets 17:17:56 0° 143° (SE) 3,221 ? -9.6°
